TimeMDT,TemperatureF,Dew PointF,Humidity,Sea Level PressureIn,VisibilityMPH,Wind Direction,Wind SpeedMPH,Gust SpeedMPH,PrecipitationIn,Events,Conditions,WindDirDegrees,DateUTC
12:56 AM,15.1,10.9,84,30.47,10.0,WNW,9.2,-,N/A,,Clear,300,2013-04-09 06:56:00
1:56 AM,12.9,9.0,84,30.48,10.0,North,3.5,-,N/A,,Clear,350,2013-04-09 07:56:00
2:56 AM,10.0,8.1,92,30.47,10.0,Calm,Calm,-,N/A,,Clear,0,2013-04-09 08:56:00
3:56 AM,10.0,7.0,87,30.48,10.0,NNE,4.6,-,N/A,,Clear,20,2013-04-09 09:56:00
4:56 AM,10.0,6.1,84,30.50,10.0,Calm,Calm,-,N/A,,Clear,0,2013-04-09 10:56:00
5:56 AM,10.9,8.1,88,30.50,10.0,ESE,3.5,-,N/A,,Clear,120,2013-04-09 11:56:00
6:56 AM,10.0,7.0,87,30.51,10.0,Calm,Calm,-,N/A,,Clear,0,2013-04-09 12:56:00
7:56 AM,14.0,10.0,84,30.51,10.0,Calm,Calm,-,N/A,,Clear,0,2013-04-09 13:56:00
8:56 AM,16.0,12.9,88,30.50,10.0,Calm,Calm,-,N/A,,Clear,0,2013-04-09 14:56:00
9:56 AM,18.0,14.0,84,30.50,10.0,South,3.5,-,N/A,,Clear,170,2013-04-09 15:56:00
10:56 AM,25.0,18.0,75,30.48,10.0,SSE,9.2,-,N/A,,Mostly Cloudy,160,2013-04-09 16:56:00
11:48 AM,28.4,19.4,69,30.32,10.0,SSE,12.7,-,N/A,,Mostly Cloudy,150,2013-04-09 17:48:00
11:56 AM,28.0,19.9,72,30.47,10.0,SSE,10.4,-,N/A,,Mostly Cloudy,160,2013-04-09 17:56:00
12:22 PM,30.2,19.4,64,30.31,10.0,South,12.7,19.6,N/A,,Mostly Cloudy,170,2013-04-09 18:22:00
12:56 PM,32.0,19.0,59,30.43,10.0,South,16.1,-,N/A,,Scattered Clouds,190,2013-04-09 18:56:00
1:56 PM,34.0,19.0,54,30.42,10.0,South,13.8,20.7,N/A,,Overcast,170,2013-04-09 19:56:00
2:56 PM,36.0,18.0,48,30.40,10.0,SSE,13.8,18.4,N/A,,Clear,160,2013-04-09 20:56:00
3:56 PM,37.9,18.0,45,30.38,10.0,South,12.7,19.6,N/A,,Clear,180,2013-04-09 21:56:00
4:56 PM,37.9,18.0,45,30.35,10.0,SE,15.0,-,N/A,,Clear,130,2013-04-09 22:56:00
5:56 PM,37.9,18.0,45,30.34,10.0,SE,11.5,19.6,N/A,,Clear,130,2013-04-09 23:56:00
6:56 PM,36.0,18.0,48,30.34,10.0,SSE,13.8,-,N/A,,Clear,150,2013-04-10 00:56:00
7:56 PM,33.1,18.0,54,30.32,10.0,SSE,10.4,-,N/A,,Clear,150,2013-04-10 01:56:00
8:56 PM,28.0,18.0,66,30.32,10.0,SE,8.1,-,N/A,,Clear,140,2013-04-10 02:56:00
9:56 PM,27.0,17.1,66,30.32,10.0,SSE,11.5,-,N/A,,Clear,150,2013-04-10 03:56:00
10:56 PM,25.0,16.0,69,30.29,10.0,SSE,11.5,-,N/A,,Clear,150,2013-04-10 04:56:00
11:56 PM,26.1,15.1,63,30.27,10.0,SSE,13.8,-,N/A,,Clear,150,2013-04-10 05:56:00